Location: *
(34.8620°S, 39.3380°E)
Time: 02:25:17
(UTC+00:00)

YAOGAN 1 - Pass Details

Date: 05 December 2021
Orbit: 618 x 620 km, 97.9° (Epoch: 27 January)

Event Time Altitude Azimuth Distance (km) Brightness Sun altitude
Rises 17:24:54 0° 176° (S) 2,928 6.5 -11.1°
Reaches altitude 10° 17:27:10 10° 182° (S) 2,014 5.8 -11.5°
Maximum altitude 17:31:21 45° 253° (WSW) 858 3.8 -12.2°
Drops below altitude 10° 17:35:29 10° 326° (NW) 1,988 5.1 -12.8°
Sets 17:37:43 0° 332° (NNW) 2,886 5.9 -13.2°
